Location: ????
(30.1475°N, 31.1342°E)
Time: 12:43:31
(UTC+00:00)

Cosmos 1833 Rocket - Pass Details

Date: 27 September 2022
Orbit: 833 x 839 km, 71.0° (Epoch: 26 November)

Event Time Altitude Azimuth Distance (km) Brightness Sun altitude
Exits shadow 02:38:00 23° 278° (W) 1,721 3.7 -15.6°
Maximum altitude 02:39:13 24° 297° (WNW) 1,650 3.8 -15.3°
Drops below altitude 10° 02:43:45 10° 351° (N) 2,455 5.1 -14.4°
Sets 02:46:40 0° 5° (N) 3,393 6.0 -13.7°
